Dewpoint
2 3 3 3 2 1 1 1 2 1 1 2 1 1 0 2 3 2 -1 3 5 5 5 5 1 8 10 9 7 8 10 10 8 7 6 3 -0 -2 -3 -3 -2 7 9 11 12
3 2 2 2 2 1 1 1 0 1 -1 -2 1 1 2 -0 2 3 1 -3 5 6 5 5 2 9 9 9 6 5 8 9 6 5 3 0 0 -1 -3 -3 1 9 9 8 10
2 2 2 2 2 1 1 -0 -0 0 1 -1 0 -1 -0 0 2 1 -1 -2 1 5 7 4 3 9 8 7 6 5 6 5 4 4 1 1 0 -2 -2 -2 -2 7 4 4 5
2 2 2 1 1 0 1 1 -0 -1 -1 -0 -2 -2 -1 0 1 1 2 4 -2 4 5 6 3 8 8 7 6 4 3 3 4 3 5 -1 -0 -2 -2 -0 -1 -2 4 7 8
2 2 2 1 2 0 1 1 0 -1 -1 -2 -2 -1 -1 0 -1 1 1 4 2 3 6 7 6 7 8 7 5 5 2 2 2 1 1 -0 -1 -2 -3 0 -0 4 7 8 9
2 3 2 2 3 1 0 1 -0 -1 -2 -0 -1 -1 -0 2 -4 -1 -1 2 3 6 6 7 5 6 6 6 5 3 3 3 1 2 1 -0 -1 -1 -2 -0 -0 -0 0 0 0
2 3 1 1 1 0 0 1 -2 -1 -1 -1 -3 -0 1 -2 -1 2 1 0 4 5 6 5 4 4 4 4 4 3 4 2 3 3 2 0 1 1 -1 -1 -1 -0 -1 -1 -1
2 2 1 -0 -0 -1 -1 -6 -3 -4 -5 -3 0 -0 1 -5 -3 -1 -1 1 1 5 7 5 4 3 4 4 5 4 3 6 2 2 2 0 4 1 -1 -0 -0 -1 -1 -1 -2
2 2 -0 -3 -2 -4 -6 -6 -7 -6 -5 -3 0 -1 -0 -2 -1 -3 -1 -1 2 6 6 4 5 3 2 5 7 6 6 5 3 1 2 1 3 -0 -1 -0 -0 -0 -1 -2 -3
1 -1 -2 -5 -5 -3 -0 -1 -3 -3 1 2 1 1 -1 -1 -1 -1 -3 -1 1 4 6 6 5 5 5 6 8 7 5 4 4 2 2 3 2 -0 -2 -2 -0 -1 -1 -2 -3
-4 -3 -4 -2 -4 -2 -1 -0 -0 1 1 -1 -1 -2 -1 -1 -3 -3 -1 -0 2 5 7 5 6 6 5 5 3 5 4 3 2 0 2 2 2 1 -1 -2 -2 -2 -2 -2 -3
-3 -4 -3 -2 0 0 -2 -1 -0 0 0 -3 -2 -3 -2 -3 -1 1 3 -0 2 4 6 7 6 4 3 4 4 2 4 4 0 0 1 2 3 1 -0 -2 -2 -2 -2 -2 -3
-7 -4 -3 -2 -0 -1 -1 -2 -2 1 0 -1 -0 0 0 -1 1 3 2 3 3 4 6 6 4 3 4 4 5 3 1 1 2 1 -0 0 1 0 -2 -2 -2 -2 -2 -2 -3
-14 -2 -5 -1 0 0 0 -2 -1 0 3 3 2 2 2 1 2 2 -1 4 2 5 4 5 4 4 5 4 3 5 -1 -0 2 2 4 -0 2 -1 -1 -2 -3 -3 -3 -3 -3
-17 -3 -5 1 1 1 -0 -0 1 1 3 2 2 1 2 2 3 2 4 4 3 5 4 7 5 6 6 5 4 2 -1 2 2 2 2 2 2 -0 -1 -1 -2 -4 -5 -5 -0
-11 -3 -3 0 2 1 1 0 2 2 4 4 2 3 3 3 4 4 5 5 4 5 4 5 4 5 5 5 6 5 2 2 2 4 6 4 2 -0 -0 -1 -2 -2 0 1 2
-13 -3 -1 -0 2 2 1 1 -0 3 2 5 4 4 4 4 3 4 5 5 5 5 6 5 5 4 5 5 5 5 3 5 6 5 5 0 3 1 -3 -3 -2 -1 0 1 3
-14 -3 1 1 1 1 2 1 1 2 4 3 4 4 5 5 5 5 5 6 4 4 5 4 7 5 4 5 7 6 2 4 5 6 5 -1 4 0 -4 -3 -2 -1 0 2 3
-10 -2 1 1 1 2 3 1 2 2 3 4 3 4 4 5 5 5 5 6 4 5 5 5 5 4 4 5 5 7 5 1 2 -0 2 1 -2 -3 -1 -0 -0 1 1 1 3
-3 1 2 1 2 3 1 3 3 2 2 3 6 3 3 4 5 5 3 3 5 4 3 4 5 4 5 5 4 5 3 4 2 1 4 1 -0 -0 0 -0 -1 -0 0 1 3
2 3 3 1 3 3 2 1 3 2 2 3 3 1 1 2 2 2 3 1 -0 0 1 3 4 6 5 6 7 5 6 4 2 1 2 1 -1 -6 -1 -2 -2 -0 0 2 2
1 2 2 3 3 3 2 2 1 1 2 3 1 1 0 0 1 3 3 1 -1 -1 2 1 4 6 6 4 4 4 5 3 4 4 0 -0 0 -6 -4 -4 -3 0 1 1 3
2 2 2 3 3 2 2 3 2 1 0 0 0 -0 -1 0 2 1 2 0 -0 0 0 0 3 4 4 2 2 5 4 4 1 3 2 1 -0 -6 -3 -2 -1 -0 -0 1 3
1 1 -0 2 2 3 3 3 4 1 1 -1 -1 -1 -1 -0 -0 2 2 1 -0 -1 -0 -1 2 2 3 2 2 3 3 1 2 3 2 1 -2 -2 -2 -3 -3 -1 0 3 3
-2 -0 -0 2 2 1 2 2 2 2 1 -1 -1 -1 -1 0 0 2 2 1 0 -2 -1 1 1 0 2 3 2 3 2 2 1 1 1 -0 -2 -3 -3 -3 -3 -1 2 3 3
-1 -1 -2 -1 -0 1 2 2 2 2 1 1 1 -1 -0 2 1 1 1 1 1 -1 -0 1 2 1 2 1 1 1 1 2 1 1 1 1 0 -5 -5 -3 -1 -0 3 3 3
-6 -4 -1 -2 -0 2 2 1 2 2 2 1 2 1 1 1 -1 -2 -2 -2 -1 -0 0 2 1 1 2 0 1 1 1 1 2 1 0 2 -1 -2 -2 -0 0 1 3 3 2
Wind_Speed
21 21 21 22 21 19 18 17 16 15 15 15 14 13 12 14 15 16 22 23 25 11 8 17 20 21 18 19 18 15 4 4 17 17 8 9 6 9 12 9 5 10 18 15 17
24 24 23 23 22 20 18 17 15 14 14 14 12 13 13 13 16 21 22 23 23 24 8 20 24 22 9 15 16 10 8 12 13 17 8 9 3 3 4 6 13 19 16 11 11
23 25 26 26 24 21 19 18 16 14 12 12 12 12 12 10 10 20 19 24 29 23 21 16 23 21 13 14 14 11 8 18 22 22 8 5 17 2 11 2 1 19 17 13 9
25 27 28 30 28 22 19 16 15 12 10 10 10 10 9 8 7 12 6 21 35 28 24 21 21 14 7 8 23 6 22 12 26 4 16 1 7 2 4 6 6 7 19 16 10
26 29 31 31 27 22 18 13 13 9 8 8 7 7 7 10 22 9 10 5 31 33 31 28 28 19 8 12 16 13 7 25 19 5 17 4 7 4 1 10 12 19 19 13 8
27 30 32 31 27 21 12 8 8 6 5 4 5 5 7 9 10 4 10 3 30 30 34 29 23 22 13 12 10 14 19 10 9 10 3 1 0 1 2 7 10 9 6 9 8
27 30 29 26 20 9 6 4 3 3 3 2 2 2 7 17 7 10 6 7 18 26 30 29 19 24 9 3 19 8 11 3 7 6 2 5 3 9 14 6 3 5 6 6 8
26 28 26 24 18 12 7 4 3 3 3 2 3 3 7 9 6 14 5 6 10 23 29 27 21 20 6 5 3 5 6 5 8 10 5 8 6 9 20 12 12 5 8 9 9
25 26 22 21 18 14 12 9 4 1 1 3 3 3 8 9 5 8 8 8 7 12 27 28 21 10 13 5 3 2 4 6 7 12 6 5 4 11 17 21 19 15 14 14 14
21 23 20 17 14 12 11 8 4 2 5 5 3 1 4 6 8 6 9 7 7 12 17 21 12 4 3 5 14 16 9 10 8 8 8 10 7 6 4 18 25 18 18 19 22
19 19 20 11 11 10 7 6 2 2 4 5 3 6 7 8 11 5 11 9 6 10 9 21 8 19 26 11 6 7 3 6 7 7 6 11 6 12 13 8 13 16 15 10 9
19 16 16 11 8 10 11 4 3 3 6 8 8 7 8 7 3 5 8 5 4 1 9 8 15 10 9 8 6 9 9 8 2 6 13 11 11 10 13 12 18 18 16 14 12
20 14 12 11 7 9 9 9 4 2 3 2 3 4 3 1 2 7 12 8 2 5 10 12 8 12 12 10 11 6 6 5 4 3 4 4 5 7 9 11 21 15 12 9 5
25 15 9 9 3 7 4 4 2 4 2 3 3 2 1 3 1 6 11 5 1 10 10 6 4 11 12 13 7 6 6 3 13 5 4 5 4 7 12 7 7 10 9 10 10
26 18 5 6 3 4 7 3 4 1 3 8 3 1 1 1 3 9 21 8 7 10 5 2 5 10 10 3 3 5 1 7 5 6 4 1 1 6 8 6 7 8 9 11 11
23 14 7 4 3 6 6 5 4 1 5 3 6 1 1 3 6 4 6 8 13 12 12 5 6 4 3 3 3 5 8 7 5 2 1 5 5 4 6 14 6 8 17 15 12
22 9 7 4 1 8 3 2 3 6 4 8 4 1 4 5 5 4 5 2 4 6 3 4 3 4 2 3 6 2 5 2 2 1 5 3 7 9 7 6 8 12 17 15 12
21 6 7 8 8 3 3 2 10 3 3 3 3 5 3 2 3 3 8 5 7 7 4 4 5 2 2 4 3 9 4 5 6 4 4 2 7 5 7 16 25 24 22 17 14
16 3 7 11 7 3 2 6 3 3 3 8 7 4 4 5 4 5 3 4 3 2 5 4 3 1 2 2 2 6 4 3 3 2 4 4 3 4 5 8 15 22 21 17 13
12 4 3 11 1 3 4 5 2 4 3 3 3 2 3 1 0 3 3 5 5 4 7 6 5 3 5 1 2 3 0 1 3 3 4 4 3 4 7 8 7 10 16 17 15
5 4 5 9 1 3 3 1 4 9 7 2 5 4 1 3 1 2 4 3 4 7 6 2 4 4 6 4 6 2 1 2 2 4 4 4 5 3 16 13 10 12 17 19 15
5 3 7 8 3 3 3 4 4 4 10 5 3 4 1 4 6 5 3 2 5 4 7 5 3 3 1 4 7 2 4 4 4 4 2 2 4 4 9 9 14 16 18 14 14
6 4 5 7 3 2 2 5 5 3 3 2 1 3 3 3 3 3 4 5 9 3 3 3 2 3 2 2 4 4 5 5 3 2 4 4 4 2 9 10 17 14 13 15 14
4 4 6 4 4 3 4 3 4 5 3 3 2 2 1 2 3 4 2 2 3 2 2 2 2 3 6 4 4 5 12 5 5 3 2 4 3 4 7 8 11 15 16 17 14
7 3 5 4 3 5 7 4 4 2 3 3 4 4 3 4 4 4 3 1 1 1 3 3 3 2 2 4 3 2 4 8 5 4 5 2 5 10 9 8 13 16 17 15 12
5 5 9 7 11 5 1 2 4 3 2 2 2 2 5 4 3 3 6 4 3 2 2 2 1 2 3 4 4 3 6 7 6 5 3 3 5 6 11 10 13 13 16 12 10
12 5 3 7 6 5 5 7 7 7 1 1 3 4 4 3 4 5 8 8 7 7 4 3 4 3 2 1 3 6 10 10 6 5 9 8 7 5 5 8 10 11 13 12 11
Wind_Direction
334 328 324 319 316 311 304 300 300 290 288 285 280 274 269 259 250 250 245 232 218 189 210 210 198 192 171 179 183 190 195 232 212 237 241 299 342 146 149 120 58 117 149 155 158
337 330 326 320 314 311 306 299 291 290 289 281 277 269 269 263 246 253 244 236 220 211 188 196 197 190 184 186 181 174 196 219 264 252 281 6 3 286 104 117 106 113 129 146 150
337 333 328 318 317 314 306 303 291 286 283 281 275 266 254 256 255 264 254 240 213 207 204 198 194 188 192 177 182 197 208 208 237 255 339 101 318 111 123 40 220 158 159 163 170
339 336 328 325 319 308 300 290 295 279 278 283 274 263 254 219 234 165 240 244 213 208 208 188 196 188 172 195 199 204 218 194 234 159 265 161 206 333 110 100 60 193 170 162 173
341 336 333 327 325 316 294 273 291 274 275 288 280 246 224 213 229 200 331 238 199 204 199 194 187 190 192 196 186 225 184 221 241 212 200 208 131 291 149 114 115 118 140 145 143
345 340 338 335 323 316 311 270 285 263 278 279 278 241 216 247 271 269 283 207 203 201 197 189 193 185 203 184 195 205 237 251 226 170 142 172 162 292 134 120 138 158 149 150 143
348 346 351 353 357 342 349 289 259 266 261 272 277 260 241 244 190 136 263 236 201 208 195 187 179 190 183 149 213 241 211 104 272 159 123 110 304 231 236 278 166 188 212 203 182
351 353 3 15 18 23 20 353 241 264 260 235 319 255 263 337 296 228 218 294 251 207 202 191 180 206 234 168 108 160 106 140 228 160 156 139 253 270 244 258 251 238 234 237 243
353 358 1 18 23 20 32 36 49 86 89 257 306 228 280 337 336 276 243 241 260 185 201 190 205 217 214 146 86 205 157 172 174 178 153 143 249 232 242 241 247 245 257 255 250
355 356 358 13 33 38 30 33 29 118 70 64 193 179 295 337 317 304 207 227 237 194 198 194 187 151 140 160 190 184 179 185 186 197 168 189 198 265 290 229 225 229 250 258 254
350 356 359 4 20 26 25 36 46 101 191 215 196 240 301 309 313 258 219 193 196 210 193 179 166 192 196 179 110 131 116 152 204 199 171 226 217 227 255 188 197 220 234 256 258
347 351 357 355 25 27 11 85 47 331 311 243 253 264 282 307 288 183 191 159 128 252 191 151 204 189 149 160 218 167 172 215 241 203 187 202 221 208 235 221 219 225 232 249 266
349 342 356 355 21 22 5 45 63 52 262 358 86 74 229 259 215 166 182 130 98 183 175 159 160 157 165 178 207 223 175 199 159 84 31 120 272 232 232 221 215 218 216 214 235
345 342 349 356 313 3 344 7 38 300 267 99 127 70 181 201 250 164 202 155 254 194 178 101 129 165 172 191 185 221 206 211 148 114 188 173 256 239 212 188 191 204 220 226 192
346 340 351 11 333 337 339 359 356 288 57 349 35 72 183 36 96 220 199 159 223 164 137 150 126 140 169 165 54 228 162 135 129 129 107 221 100 258 164 207 204 205 207 189 167
345 341 343 5 333 300 335 291 297 56 22 17 349 12 306 214 194 97 112 191 107 100 66 57 27 51 153 72 45 310 82 54 56 83 47 217 170 256 196 205 161 155 148 145 143
345 339 352 350 272 309 292 254 28 53 305 2 46 349 84 41 57 31 104 31 82 89 80 91 25 7 2 94 341 12 103 53 25 11 216 299 198 253 221 186 162 161 159 159 156
348 339 12 25 353 337 292 59 61 309 333 326 278 68 87 110 15 92 139 77 30 82 105 131 142 11 38 149 207 201 169 154 177 195 221 321 216 252 243 166 160 162 166 165 166
351 8 9 12 12 15 356 50 117 269 297 332 319 19 27 111 97 79 132 104 117 89 110 130 102 62 247 117 210 190 196 174 125 39 82 212 257 349 50 107 133 148 157 165 168
359 34 347 345 15 37 58 110 204 197 253 255 307 236 31 168 203 165 116 124 138 168 131 162 118 197 154 201 273 248 300 97 4 150 232 265 226 210 178 173 163 160 169 176 177
41 27 9 347 321 82 97 156 203 210 214 254 311 51 332 316 177 57 38 53 107 165 145 151 110 147 146 203 182 105 149 200 140 153 189 175 252 224 186 178 166 179 181 178 180
57 67 355 3 41 153 104 161 250 177 191 255 257 313 27 358 22 61 87 58 19 131 146 164 106 114 119 203 180 79 202 184 140 238 226 157 274 314 173 158 157 164 162 169 182
8 326 340 352 62 62 195 169 214 268 192 183 209 1 2 44 86 81 69 358 21 51 138 160 134 104 67 30 209 185 245 207 115 100 217 137 265 36 118 133 149 158 176 182 192
13 359 337 16 12 8 8 209 182 196 224 263 219 268 294 59 62 134 108 23 13 88 36 119 107 163 182 191 140 183 186 173 154 136 237 211 173 140 150 155 175 183 184 182 191
27 37 10 332 326 339 330 304 328 193 235 216 226 207 191 162 161 123 111 142 54 74 24 89 125 97 51 98 82 174 185 170 166 180 154 267 192 189 186 185 194 187 175 177 190
62 19 348 299 294 298 278 347 34 1 28 357 25 6 62 98 114 143 140 175 187 220 109 57 159 92 340 162 150 215 242 202 199 211 243 264 281 184 208 171 159 174 173 178 190
27 37 355 287 316 327 9 353 351 344 303 342 329 335 107 146 85 74 96 89 147 150 154 119 131 98 258 324 351 297 221 201 197 190 191 209 219 152 175 175 174 178 186 192 199
Height
1502 1500 1498 1494 1491 1489 1487 1486 1485 1484 1484 1483 1483 1483 1484 1485 1485 1486 1485 1491 1495 1498 1500 1502 1505 1510 1511 1516 1521 1528 1530 1532 1529 1525 1516 1511 1511 1509 1510 1513 1517 1519 1522 1526 1530
1500 1496 1493 1490 1487 1485 1483 1482 1481 1480 1480 1479 1480 1480 1480 1481 1482 1480 1483 1486 1491 1495 1498 1499 1503 1508 1511 1514 1518 1521 1529 1529 1522 1516 1511 1514 1513 1510 1511 1513 1520 1522 1523 1526 1529
1498 1494 1490 1485 1482 1480 1478 1477 1476 1476 1476 1476 1476 1476 1477 1478 1479 1473 1479 1481 1485 1490 1495 1499 1503 1507 1509 1511 1512 1515 1517 1519 1520 1516 1515 1520 1516 1512 1512 1515 1516 1522 1522 1525 1528
1494 1490 1485 1480 1476 1474 1472 1472 1472 1472 1473 1472 1472 1473 1475 1477 1476 1471 1473 1472 1478 1487 1492 1497 1501 1504 1506 1506 1508 1512 1511 1513 1517 1518 1521 1516 1518 1513 1514 1517 1515 1517 1522 1523 1527
1492 1487 1481 1475 1470 1467 1465 1466 1467 1469 1469 1470 1470 1471 1473 1475 1467 1469 1467 1468 1475 1482 1486 1491 1495 1499 1501 1503 1506 1508 1508 1512 1514 1515 1514 1514 1515 1517 1515 1518 1517 1521 1524 1525 1527
1491 1485 1477 1470 1465 1462 1461 1462 1464 1466 1467 1468 1468 1469 1471 1472 1467 1469 1468 1468 1474 1478 1484 1488 1491 1497 1501 1501 1502 1500 1504 1509 1512 1512 1511 1511 1512 1515 1515 1517 1518 1521 1524 1525 1527
1488 1482 1474 1466 1460 1459 1459 1461 1462 1464 1466 1467 1467 1468 1470 1465 1465 1467 1467 1469 1472 1476 1481 1486 1492 1496 1495 1498 1499 1501 1506 1509 1511 1510 1511 1511 1515 1512 1510 1515 1517 1520 1522 1525 1526
1486 1481 1474 1468 1463 1460 1460 1460 1461 1463 1465 1466 1466 1467 1465 1464 1464 1464 1470 1470 1471 1472 1477 1485 1489 1495 1496 1496 1499 1503 1505 1515 1508 1508 1510 1511 1518 1509 1509 1514 1515 1518 1520 1522 1524
1486 1481 1475 1470 1467 1465 1462 1462 1462 1463 1464 1465 1467 1467 1465 1463 1463 1463 1465 1471 1469 1471 1476 1483 1489 1492 1495 1499 1506 1506 1513 1513 1509 1505 1508 1511 1516 1509 1508 1512 1513 1515 1518 1520 1522
1483 1480 1476 1472 1468 1466 1464 1463 1463 1463 1464 1465 1467 1471 1465 1465 1464 1463 1465 1468 1471 1472 1476 1481 1487 1491 1494 1499 1498 1501 1506 1506 1507 1504 1505 1509 1511 1507 1506 1508 1510 1514 1516 1518 1519
1482 1478 1476 1472 1469 1467 1464 1461 1464 1465 1464 1462 1464 1464 1464 1464 1463 1463 1464 1468 1474 1474 1470 1477 1483 1482 1474 1488 1490 1499 1501 1505 1504 1500 1505 1507 1508 1507 1508 1507 1508 1510 1513 1514 1515
1480 1477 1474 1472 1469 1467 1464 1462 1464 1467 1464 1461 1462 1464 1463 1462 1461 1461 1464 1465 1470 1468 1462 1475 1475 1479 1484 1490 1492 1496 1502 1503 1499 1497 1501 1504 1506 1505 1505 1505 1505 1507 1508 1511 1512
1477 1474 1472 1472 1469 1468 1465 1464 1464 1464 1464 1460 1462 1463 1462 1463 1461 1461 1463 1466 1471 1473 1462 1467 1473 1479 1484 1490 1492 1494 1499 1502 1502 1500 1502 1504 1510 1506 1502 1501 1501 1503 1505 1507 1509
1476 1471 1469 1469 1470 1467 1466 1464 1463 1463 1462 1460 1462 1464 1463 1461 1461 1460 1462 1468 1471 1467 1467 1470 1474 1479 1485 1489 1491 1499 1490 1491 1499 1506 1515 1504 1518 1505 1497 1497 1498 1500 1502 1504 1506
1474 1471 1467 1465 1467 1466 1465 1462 1462 1462 1460 1461 1462 1463 1462 1462 1463 1460 1462 1467 1469 1464 1465 1477 1476 1480 1486 1490 1490 1492 1487 1494 1499 1505 1507 1508 1519 1500 1495 1497 1496 1496 1498 1501 1504
1471 1467 1467 1465 1465 1465 1463 1459 1460 1465 1456 1462 1465 1461 1461 1460 1457 1458 1458 1458 1458 1467 1471 1480 1481 1485 1490 1492 1493 1494 1494 1500 1503 1508 1524 1507 1513 1501 1497 1485 1491 1494 1497 1500 1503
1470 1466 1465 1464 1463 1462 1462 1460 1465 1467 1463 1462 1463 1458 1457 1457 1458 1459 1457 1458 1461 1474 1482 1487 1492 1492 1492 1491 1495 1495 1501 1526 1526 1533 1521 1503 1509 1491 1483 1482 1484 1490 1494 1498 1501
1468 1467 1466 1465 1462 1460 1462 1463 1475 1467 1469 1465 1462 1456 1458 1460 1462 1461 1461 1463 1464 1469 1482 1485 1488 1492 1495 1497 1496 1497 1496 1515 1519 1525 1515 1502 1502 1485 1477 1478 1482 1487 1492 1496 1499
1465 1465 1466 1466 1463 1461 1463 1471 1474 1477 1470 1466 1454 1452 1452 1456 1459 1460 1462 1466 1468 1467 1478 1486 1495 1497 1497 1498 1495 1497 1501 1494 1506 1505 1525 1505 1489 1483 1480 1481 1483 1486 1491 1494 1497
1466 1466 1467 1467 1466 1463 1465 1473 1475 1472 1469 1466 1461 1453 1455 1454 1456 1461 1461 1464 1468 1469 1469 1482 1494 1497 1497 1497 1495 1493 1491 1501 1519 1511 1508 1507 1492 1486 1486 1485 1484 1486 1489 1493 1496
1464 1465 1469 1467 1467 1467 1473 1475 1471 1467 1466 1466 1459 1455 1456 1454 1452 1454 1461 1462 1462 1466 1466 1470 1480 1494 1495 1495 1490 1493 1495 1494 1498 1506 1502 1504 1493 1473 1474 1476 1482 1485 1488 1492 1494
1464 1466 1465 1464 1468 1465 1472 1469 1467 1465 1465 1463 1461 1456 1454 1454 1458 1459 1463 1462 1460 1461 1467 1469 1477 1489 1489 1488 1489 1489 1489 1489 1503 1500 1510 1509 1493 1471 1472 1476 1479 1484 1487 1490 1492
1470 1467 1466 1465 1465 1467 1467 1468 1469 1465 1462 1461 1459 1458 1457 1457 1462 1462 1466 1465 1463 1464 1466 1468 1482 1496 1499 1497 1492 1493 1489 1485 1489 1497 1506 1511 1494 1474 1474 1478 1480 1483 1486 1488 1490
1472 1474 1468 1465 1463 1465 1465 1465 1467 1466 1464 1461 1458 1457 1457 1459 1459 1464 1467 1466 1466 1466 1466 1466 1474 1478 1489 1479 1480 1488 1483 1484 1489 1499 1488 1493 1482 1481 1479 1479 1480 1482 1484 1486 1488
1476 1480 1480 1474 1466 1467 1468 1462 1462 1463 1462 1461 1460 1458 1458 1462 1462 1466 1466 1468 1467 1466 1466 1468 1483 1483 1476 1477 1483 1478 1478 1483 1491 1483 1495 1481 1479 1475 1476 1476 1477 1480 1482 1485 1486
1480 1482 1484 1481 1474 1469 1463 1461 1461 1460 1461 1459 1460 1456 1456 1460 1462 1461 1463 1466 1466 1468 1468 1471 1487 1484 1487 1477 1479 1479 1477 1477 1479 1479 1481 1482 1479 1470 1472 1474 1476 1479 1480 1482 1483
1485 1484 1484 1479 1474 1471 1469 1467 1463 1463 1461 1460 1460 1459 1459 1459 1458 1459 1459 1460 1462 1466 1470 1473 1481 1490 1491 1477 1478 1481 1470 1473 1472 1472 1473 1482 1474 1469 1472 1473 1474 1476 1477 1480 1481